Starlink 5333

operational
NORAD ID: 56507 Int'l Des: 2023-065 Owner: SPXS Country: US Constellation: starlink
LEOCIRCULAR

About Starlink 5333

Description loading...

Live Position

Loading 3D Globe...

Upcoming Passes

Altitude History

Altitude vs Time

uPlot chart will show altitude changes over time

Two-Line Element Set

1 56507U 23065E 25352.14258976 -.00001320 00000-0 -82623-4 0 9991
2 56507 43.0038 254.7801 0001248 269.3563 90.7136 15.02539860144801
Epoch: Dec 18, 2025 • Age: 24 hours

Current Status

Altitude 562.6 km
Velocity 7.59 km/s
Sub-Earth Point 41.09°N, 144.56°W
Launch Date May 14, 2023
Age 2.5 years
Type internet

Technical Details

Classification Payload
Mass 305.00 kg
Dry Mass 290.00 kg
Total Mass 305.00 kg
Length 0.20 m
Diameter 2.80 m
Span 9.00 m
Shape Box + pan
Manufacturer SPXS
Bus Type Starlink
Phase Status In Orbit
Owner/State SPXS/US

Large Constellations

Loading constellations...